| time (UTC) | temp F | wind direction | speed knots | gust knots | rain 1hr in | rain 24hr in | rain mn in | humidity % | barometer mb |
| 20260901190019 | 70 | 293 | 4.3 | 13.9 | 0.00 | 0.00 | 0.00 | 40 | 1005.5 |
| 20260901184532 | 70 | 6 | 1.7 | 6.1 | 0.00 | 0.00 | 0.00 | 41 | 1006.3 |
| 20260901183018 | 70 | 319 | 4.3 | 7.0 | 0.00 | 0.00 | 0.00 | 39 | 1006.1 |
| 20260901181521 | 70 | 322 | 2.6 | 4.3 | 0.00 | 0.00 | 0.00 | 39 | 1006.5 |
| 20260901180015 | 69 | 1 | 1.7 | 4.3 | 0.00 | 0.00 | 0.00 | 38 | 1006.6 |
| 20260901174534 | 69 | 46 | 3.5 | 7.0 | 0.00 | 0.00 | 0.00 | 39 | 1006.0 |
| 20260901173008 | 67 | 79 | 2.6 | 4.3 | 0.00 | 0.00 | 0.00 | 40 | 1006.2 |
| 20260901171505 | 67 | 41 | 0.0 | 4.3 | 0.00 | 0.00 | 0.00 | 42 | 1006.6 |
| 20260901170003 | 66 | 46 | 0.0 | 1.7 | 0.00 | 0.00 | 0.00 | 41 | 1006.9 |
| 20260901164503 | 65 | 338 | 0.9 | 2.6 | 0.00 | 0.00 | 0.00 | 42 | 1006.5 |
| 20260901163101 | 65 | 249 | 2.6 | 5.2 | 0.00 | 0.00 | 0.00 | 45 | 1006.5 |
| 20260901161614 | 65 | 7 | 3.5 | 5.2 | 0.00 | 0.00 | 0.00 | 42 | 1005.8 |
| 20260901160115 | 65 | 25 | 0.9 | 3.5 | 0.00 | 0.00 | 0.00 | 42 | 1006.1 |
| 20260901154558 | 64 | 349 | 1.7 | 2.6 | 0.00 | 0.00 | 0.00 | 44 | 1006.1 |
| 20260901153110 | 62 | 118 | 0.0 | 3.5 | 0.00 | 0.00 | 0.00 | 47 | 1006.3 |
| 20260901151558 | 57 | 102 | 1.7 | 2.6 | 0.00 | 0.00 | 0.00 | 53 | 1006.5 |
| 20260901150051 | 56 | 257 | 0.0 | 0.0 | 0.00 | 0.00 | 0.00 | 55 | 1006.6 |
| 20260901144550 | 54 | 257 | 0.0 | 2.6 | 0.00 | 0.00 | 0.00 | 58 | 1006.3 |
| 20260901143102 | 54 | 133 | 0.0 | 0.9 | 0.00 | 0.00 | 0.00 | 56 | 1006.0 |
| 20260901141547 | 54 | 133 | 0.0 | 0.9 | 0.00 | 0.00 | 0.00 | 57 | 1005.9 |
| 20260901140050 | 53 | 133 | 0.0 | 0.9 | 0.00 | 0.00 | 0.00 | 57 | 1005.8 |
| 20260901134545 | 52 | 139 | 0.0 | 2.6 | 0.00 | 0.00 | 0.00 | 56 | 1005.5 |
| 20260901133044 | 52 | 238 | 0.0 | 2.6 | 0.00 | 0.00 | 0.00 | 56 | 1005.5 |
| 20260901131545 | 54 | 141 | 0.0 | 1.7 | 0.00 | 0.00 | 0.00 | 56 | 1005.5 |
| 20260901130041 | 54 | 141 | 0.0 | 0.9 | 0.00 | 0.00 | 0.00 | 56 | 1005.2 |
| 20260901124540 | 53 | 141 | 0.0 | 0.0 | 0.00 | 0.00 | 0.00 | 56 | 1005.4 |
| 20260901123047 | 52 | 141 | 0.0 | 0.0 | 0.00 | 0.00 | 0.00 | 58 | 1005.2 |
| 20260901121543 | 53 | 141 | 0.0 | 0.9 | 0.00 | 0.00 | 0.00 | 56 | 1005.2 |
| 20260901120046 | 53 | 141 | 0.0 | 0.9 | 0.00 | 0.00 | 0.00 | 56 | 1005.3 |
| 20260901114541 | 54 | 141 | 0.0 | 0.9 | 0.00 | 0.00 | 0.00 | 55 | 1005.2 |
| 20260901113036 | 55 | 141 | 0.0 | 0.9 | 0.00 | 0.00 | 0.00 | 55 | 1005.2 |
| 20260901111531 | 55 | 141 | 0.0 | 1.7 | 0.00 | 0.00 | 0.00 | 55 | 1005.2 |
| 20260901110026 | 58 | 141 | 0.0 | 1.7 | 0.00 | 0.00 | 0.00 | 50 | 1005.2 |
| 20260901104525 | 58 | 141 | 0.0 | 0.0 | 0.00 | 0.00 | 0.00 | 48 | 1005.4 |
| 20260901103023 | 58 | 141 | 0.0 | 0.0 | 0.00 | 0.00 | 0.00 | 49 | 1005.6 |
| 20260901101523 | 58 | 141 | 0.0 | 0.9 | 0.00 | 0.00 | 0.00 | 50 | 1005.7 |
| 20260901100021 | 57 | 142 | 0.0 | 0.9 | 0.00 | 0.00 | 0.00 | 50 | 1005.7 |
| 20260901094520 | 59 | 142 | 0.0 | 3.5 | 0.00 | 0.00 | 0.00 | 48 | 1005.8 |
| 20260901093021 | 59 | 165 | 0.9 | 3.5 | 0.00 | 0.00 | 0.00 | 49 | 1005.9 |
| 20260901091519 | 59 | 156 | 2.6 | 5.2 | 0.00 | 0.00 | 0.00 | 47 | 1006.0 |
| 20260901090017 | 58 | 134 | 1.7 | 4.3 | 0.00 | 0.00 | 0.00 | 47 | 1005.9 |
| 20260901084513 | 60 | 141 | 1.7 | 3.5 | 0.00 | 0.00 | 0.00 | 45 | 1006.1 |
| 20260901083013 | 59 | 133 | 1.7 | 3.5 | 0.00 | 0.00 | 0.00 | 44 | 1006.1 |
| 20260901081511 | 60 | 162 | 2.6 | 4.3 | 0.00 | 0.00 | 0.00 | 42 | 1006.1 |
| 20260901080110 | 60 | 155 | 1.7 | 3.5 | 0.00 | 0.00 | 0.00 | 43 | 1006.0 |
| 20260901074508 | 60 | 153 | 1.7 | 4.3 | 0.00 | 0.00 | 0.00 | 42 | 1005.9 |
| 20260901073009 | 61 | 165 | 0.9 | 6.1 | 0.00 | 0.00 | 0.00 | 40 | 1005.9 |
| 20260901071505 | 61 | 199 | 3.5 | 5.2 | 0.00 | 0.00 | 0.00 | 40 | 1005.8 |
| 20260901070001 | 62 | 132 | 0.9 | 4.3 | 0.00 | 0.00 | 0.00 | 40 | 1005.7 |
| 20260901064601 | 62 | 149 | 2.6 | 4.3 | 0.00 | 0.00 | 0.00 | 39 | 1005.8 |
| 20260901063110 | 62 | 145 | 0.9 | 3.5 | 0.00 | 0.00 | 0.00 | 40 | 1005.7 |
| 20260901061627 | 62 | 184 | 1.7 | 4.3 | 0.00 | 0.00 | 0.00 | 39 | 1005.6 |
| 20260901060101 | 63 | 155 | 1.7 | 5.2 | 0.00 | 0.00 | 0.00 | 38 | 1005.8 |
| 20260901054559 | 63 | 150 | 3.5 | 5.2 | 0.00 | 0.00 | 0.00 | 38 | 1005.8 |
| 20260901053109 | 63 | 148 | 0.9 | 4.3 | 0.00 | 0.00 | 0.00 | 38 | 1006.0 |
| 20260901051558 | 63 | 160 | 3.5 | 4.3 | 0.00 | 0.00 | 0.00 | 37 | 1006.0 |
| 20260901050057 | 63 | 134 | 1.7 | 5.2 | 0.00 | 0.00 | 0.00 | 36 | 1006.0 |
| 20260901044602 | 63 | 136 | 3.5 | 6.1 | 0.00 | 0.00 | 0.00 | 36 | 1006.0 |
| 20260901043059 | 65 | 134 | 4.3 | 6.1 | 0.00 | 0.00 | 0.00 | 35 | 1005.9 |
| 20260901041556 | 64 | 143 | 3.5 | 5.2 | 0.00 | 0.00 | 0.00 | 35 | 1005.9 |
| 20260901040055 | 66 | 132 | 1.7 | 3.5 | 0.00 | 0.00 | 0.00 | 32 | 1005.9 |
| 20260901034555 | 69 | 158 | 0.0 | 1.7 | 0.00 | 0.00 | 0.00 | 31 | 1005.8 |
| 20260901033053 | 69 | 131 | 0.0 | 1.7 | 0.00 | 0.00 | 0.00 | 31 | 1005.7 |
| 20260901031558 | 71 | 240 | 0.0 | 0.9 | 0.00 | 0.00 | 0.00 | 29 | 1005.5 |
| 20260901030053 | 73 | 240 | 0.0 | 0.0 | 0.00 | 0.00 | 0.00 | 28 | 1005.4 |
| 20260901024554 | 74 | 94 | 0.9 | 2.6 | 0.00 | 0.00 | 0.00 | 27 | 1005.3 |
| 20260901023051 | 76 | 339 | 0.9 | 2.6 | 0.00 | 0.00 | 0.00 | 25 | 1005.4 |
| 20260901021551 | 79 | 6 | 1.7 | 5.2 | 0.00 | 0.00 | 0.00 | 23 | 1005.5 |
| 20260901020106 | 81 | 17 | 3.5 | 7.8 | 0.00 | 0.00 | 0.00 | 22 | 1005.6 |
| 20260901014546 | 82 | 18 | 5.2 | 8.7 | 0.00 | 0.00 | 0.00 | 21 | 1005.7 |
| 20260901013045 | 83 | 28 | 7.8 | 11.3 | 0.00 | 0.00 | 0.00 | 20 | 1005.8 |
| 20260901011548 | 84 | 13 | 7.0 | 12.2 | 0.00 | 0.00 | 0.00 | 20 | 1005.8 |
| 20260901010043 | 84 | 23 | 7.8 | 13.0 | 0.00 | 0.00 | 0.00 | 19 | 1006.0 |
| 20260901004555 | 84 | 28 | 7.8 | 12.2 | 0.00 | 0.00 | 0.00 | 19 | 1006.1 |
| 20260901003042 | 84 | 352 | 7.8 | 12.2 | 0.00 | 0.00 | 0.00 | 19 | 1006.3 |
| 20260901001539 | 84 | 37 | 8.7 | 13.9 | 0.00 | 0.00 | 0.00 | 20 | 1006.5 |
| 20260901000055 | 84 | 41 | 9.6 | 14.8 | 0.00 | 0.00 | 0.00 | 20 | 1006.8 |
| 20260831234536 | 84 | 29 | 7.8 | 13.9 | 0.00 | 0.00 | 0.00 | 20 | 1006.8 |
| 20260831233034 | 84 | 21 | 9.6 | 14.8 | 0.00 | 0.00 | 0.00 | 20 | 1006.9 |
| 20260831231534 | 84 | 23 | 9.6 | 13.0 | 0.00 | 0.00 | 0.00 | 20 | 1007.1 |
| 20260831230035 | 84 | 12 | 7.8 | 14.8 | 0.00 | 0.00 | 0.00 | 21 | 1007.3 |
| 20260831224526 | 84 | 29 | 7.0 | 13.0 | 0.00 | 0.00 | 0.00 | 21 | 1007.6 |
| 20260831223024 | 83 | 15 | 11.3 | 14.8 | 0.00 | 0.00 | 0.00 | 22 | 1007.7 |
| 20260831221521 | 83 | 15 | 9.6 | 13.9 | 0.00 | 0.00 | 0.00 | 23 | 1008.0 |
| 20260831220017 | 82 | 34 | 12.2 | 16.5 | 0.00 | 0.00 | 0.00 | 23 | 1008.2 |
| 20260831214515 | 82 | 37 | 8.7 | 17.4 | 0.00 | 0.00 | 0.00 | 24 | 1008.5 |
| 20260831213012 | 81 | 356 | 8.7 | 13.0 | 0.00 | 0.00 | 0.00 | 24 | 1008.8 |
| 20260831211509 | 81 | 51 | 8.7 | 14.8 | 0.00 | 0.00 | 0.00 | 24 | 1009.1 |
| 20260831210006 | 80 | 22 | 7.0 | 13.9 | 0.00 | 0.00 | 0.00 | 24 | 1009.3 |
| 20260831204504 | 80 | 45 | 7.8 | 13.9 | 0.00 | 0.00 | 0.00 | 24 | 1009.5 |
| 20260831203001 | 79 | 77 | 8.7 | 15.6 | 0.00 | 0.00 | 0.00 | 25 | 1009.7 |
| 20260831201600 | 80 | 44 | 8.7 | 13.9 | 0.00 | 0.00 | 0.00 | 24 | 1010.0 |
| 20260831200058 | 79 | 17 | 6.1 | 13.9 | 0.00 | 0.00 | 0.00 | 25 | 1010.3 |
| 20260831194632 | 79 | 49 | 7.0 | 12.2 | 0.00 | 0.00 | 0.00 | 25 | 1010.5 |
| 20260831193053 | 79 | 49 | 7.0 | 11.3 | 0.00 | 0.00 | 0.00 | 26 | 1010.5 |
| 20260831191548 | 78 | 316 | 2.6 | 9.6 | 0.00 | 0.00 | 0.00 | 26 | 1010.9 |